[[{"header":{"parameterUnit":"m.s-1","parameterCategory":1,"la1":30.2991,"la2":30.254,"lo1":-89.0895,"lo2":-89.0444,"dy":0.0017,"dx":0.0017,"nx":28,"ny":28,"refTime":"2024-12-02T09:00:00:Z","depth":0,"parameterNumber":2,"parameterNumberName":"U-component_of_WINDS"},"data":[0,0,0,0,0,0,0,0,0,0,0,0,0,0,0,0,0,0,0,0,0,0,0,0,0,0,0,0,0,0,0,0,0,0,0,0,0,0,0,0,0,0,0,0,0,0,0,0,0,0,0,0,0,0,0,0,0,0,-0.47,-0.47,0,-0.4719,-0.4719,-0.4719,-0.4677,-0.4676,-0.4674,-0.4673,-0.4696,-0.4697,-0.4699,0,0,0,0,0,0,0,0,0,0,0,0,0,-0.4629,-0.4631,-0.47,-0.47,-0.47,-0.4719,-0.4719,-0.4719,-0.4677,-0.4676,-0.4674,-0.4672,-0.4695,-0.4697,-0.4699,0,0,0,0,0,0,0,0,0,0,0,0,0,-0.4655,-0.4631,-0.47,-0.4682,-0.468,-0.4719,-0.4719,-0.4719,-0.4678,-0.4676,-0.4674,-0.4672,-0.4694,-0.4697,-0.47,-0.4758,0,0,-0.4708,-0.4709,0,0,0,0,0,0,0,0,-0.4654,-0.4658,-0.4684,-0.4683,-0.4681,-0.4693,-0.4702,-0.4732,-0.4678,-0.4679,-0.4673,-0.4671,-0.4697,-0.4699,-0.4707,-0.4759,-0.476,-0.4708,-0.471,-0.4711,-0.4712,0,0,0,0,0,0,0,-0.4652,-0.4657,-0.4708,-0.4685,-0.4683,-0.4673,-0.4674,-0.4708,-0.4699,-0.4679,-0.4675,-0.4678,-0.4696,-0.4705,-0.4708,-0.476,-0.4708,-0.4711,-0.4713,-0.4714,-0.4859,-0.4861,0,0,0,0,0,0,-0.4652,-0.4656,-0.4707,-0.4708,-0.4662,-0.4676,-0.4677,-0.4692,-0.4699,-0.4698,-0.468,-0.4676,-0.4701,-0.4704,-0.4708,-0.4776,-0.4711,-0.4714,-0.4716,-0.4857,-0.486,-0.4862,0,0,0,0,0,0,-0.4651,-0.4657,-0.4706,-0.4681,-0.4686,-0.4679,-0.4696,-0.4693,-0.4702,-0.4699,-0.4698,-0.4691,-0.4699,-0.4704,-0.4745,-0.4776,-0.4715,-0.4718,-0.4855,-0.4858,-0.4861,-0.4913,0,0,0,0,0,0,-0.4649,-0.4657,-0.4679,-0.4682,-0.4688,-0.4743,-0.4697,-0.4695,-0.4707,-0.4702,-0.4709,-0.4709,-0.4698,-0.4741,-0.4748,-0.4779,-0.472,-0.4852,-0.4856,-0.486,-0.4909,-0.4918,-0.4926,0,0,0,0,0,-0.4647,-0.4694,-0.468,-0.4687,-0.4715,-0.4745,-0.4748,-0.4735,-0.4709,-0.4732,-0.4729,-0.4708,-0.4772,-0.4746,-0.4753,-0.4786,-0.485,-0.4855,-0.486,-0.4905,-0.4916,-0.4926,0,0,0,0,0,0,-0.4697,-0.4694,-0.4679,-0.4728,-0.4737,-0.4738,-0.4765,-0.4747,-0.4764,-0.4759,-0.4742,-0.4744,-0.4788,-0.4791,-0.4762,-0.4842,-0.4806,-0.4813,-0.4839,-0.4849,-0.4858,-0.4857,-0.4722,0,0,0,0,0,-0.4713,-0.4737,-0.4733,-0.4778,-0.4782,-0.4773,-0.4785,-0.4774,-0.4782,-0.4786,-0.4787,-0.4797,-0.4819,-0.4834,-0.4854,-0.4908,-0.4909,-0.4934,-0.4943,-0.495,-0.4956,-0.4984,-0.4995,-0.4878,-0.4878,-0.4878,0,0,-0.4749,-0.475,-0.4766,-0.4788,-0.4793,-0.4818,-0.4777,-0.4805,-0.4824,-0.4791,-0.483,-0.483,-0.484,-0.4888,-0.4909,-0.4892,-0.4988,-0.4956,-0.4962,-0.4964,-0.499,-0.5001,-0.5011,-0.4882,-0.4881,-0.488,0,0,-0.4825,-0.4829,-0.4865,-0.487,-0.4878,-0.4871,-0.488,-0.4883,-0.4882,-0.4919,-0.4895,-0.4917,-0.4955,-0.4963,-0.4972,-0.5049,-0.503,-0.5056,-0.5101,-0.5128,-0.5138,-0.5146,-0.5173,-0.5183,-0.5062,-0.5062,-0.5062,0,-0.4869,-0.4905,-0.4887,-0.4916,-0.4926,-0.4895,-0.4932,-0.4939,-0.4953,-0.4961,-0.4941,-0.4987,-0.4991,-0.504,-0.5059,-0.5067,-0.5076,-0.5056,-0.5137,-0.5145,-0.5153,-0.5179,-0.5189,-0.5065,-0.5065,-0.5064,-0.5064,0,-0.4957,-0.4982,-0.5011,-0.5024,-0.5037,-0.507,-0.5058,-0.5073,-0.5059,-0.5055,-0.5093,-0.5097,-0.5117,-0.5127,-0.5115,-0.5174,-0.5163,-0.514,-0.5105,-0.5167,-0.5191,-0.5201,-0.5069,-0.5068,-0.5067,-0.5067,0,0,-0.5069,-0.5069,-0.508,-0.5085,-0.5089,-0.5109,-0.514,-0.5158,-0.5172,-0.5182,-0.5208,-0.524,-0.5219,-0.5229,-0.5217,-0.5241,-0.5301,-0.5215,-0.5215,-0.5232,-0.5366,-0.5383,-0.5395,-0.5288,-0.529,-0.5291,-0.5365,0,-0.5145,-0.5198,-0.5181,-0.5235,-0.5258,-0.5228,-0.5255,-0.5261,-0.5257,-0.5276,-0.5271,-0.5294,-0.5264,-0.527,-0.5292,-0.5289,-0.5328,-0.5284,-0.5313,-0.5314,-0.5312,-0.5408,-0.5427,-0.5496,-0.5374,-0.5376,-0.5377,0,-0.5241,-0.5253,-0.5309,-0.5308,-0.5317,-0.5342,-0.5356,-0.5375,-0.5381,-0.5376,-0.5386,-0.5368,-0.5399,-0.5362,-0.5405,-0.5375,-0.5385,-0.5385,-0.5388,-0.5391,-0.535,-0.5414,-0.5518,-0.5529,-0.5392,-0.5391,-0.539,0,-0.5317,-0.5347,-0.5384,-0.5389,-0.539,-0.5408,-0.5409,-0.5412,-0.5423,-0.5436,-0.5443,-0.5459,-0.5469,-0.5482,-0.5469,-0.5443,-0.5513,-0.5475,-0.5511,-0.5511,-0.5528,-0.5527,-0.5636,-0.5534,-0.5533,-0.5533,-0.5533,0,-0.5405,-0.544,-0.5418,-0.5441,-0.5479,-0.546,-0.5498,-0.5496,-0.5499,-0.5521,-0.5496,-0.5517,-0.5499,-0.5518,-0.5509,-0.5545,-0.5549,-0.5547,-0.5544,-0.5549,-0.555,-0.5557,-0.5552,-0.5536,-0.5535,-0.5535,-0.5534,0,-0.5497,-0.5484,-0.5522,-0.5518,-0.5517,-0.5546,-0.5543,-0.5564,-0.5556,-0.5585,-0.559,-0.5579,-0.5601,-0.5589,-0.5612,-0.5605,-0.5652,-0.5642,-0.565,-0.5648,-0.5683,-0.568,-0.5801,-0.5816,-0.5704,-0.5705,-0.5706,0,-0.5554,-0.558,-0.5578,-0.559,-0.5592,-0.5613,-0.5623,-0.5604,-0.5616,-0.5624,-0.5644,-0.5663,-0.5677,-0.5713,-0.5708,-0.5725,-0.5715,-0.5756,-0.5718,-0.5722,-0.5716,-0.5715,-0.5718,-0.5765,-0.5766,-0.5767,-0.5768,0,-0.5657,-0.5648,-0.5664,-0.5677,-0.569,-0.5699,-0.5707,-0.5719,-0.5699,-0.5714,-0.5735,-0.5746,-0.5768,-0.5787,-0.5801,-0.5803,-0.5783,-0.578,-0.5789,-0.5796,-0.5799,-0.5798,-0.5672,-0.5778,-0.5777,-0.5776,-0.5776,-0.5775,-0.5734,-0.5755,-0.5756,-0.5774,-0.5777,-0.5784,-0.5803,-0.5797,-0.5814,-0.583,-0.5817,-0.5842,-0.5845,-0.5862,-0.5866,-0.5885,-0.5868,-0.5882,-0.5885,-0.5889,-0.5894,-0.5795,-0.5887,-0.5887,-0.5887,-0.5887,-0.5886,0,-0.5836,-0.5834,-0.585,-0.5861,-0.5875,-0.5852,-0.5859,-0.5872,-0.5894,-0.5898,-0.5912,-0.5935,-0.5953,-0.5948,-0.5964,-0.598,-0.5971,-0.5985,-0.5984,-0.5985,-0.5908,-0.5898,-0.5992,-0.5992,-0.5992,-0.5992,-0.5992,-0.5992,-0.589,-0.5925,-0.5916,-0.5951,-0.595,-0.5973,-0.5978,-0.5985,-0.5988,-0.6014,-0.6029,-0.6024,-0.6025,-0.604,-0.6055,-0.6053,-0.6061,-0.6078,-0.6073,-0.6001,-0.5991,-0.5981,-0.5972,-0.608,-0.608,-0.6149,-0.6149,-0.615]},{"header":{"parameterUnit":"m.s-1","parameterCategory":1,"la1":30.2991,"la2":30.254,"lo1":-89.0895,"lo2":-89.0444,"dy":0.0017,"dx":0.0017,"nx":28,"ny":28,"refTime":"2024-12-02T09:00:00:Z","depth":0,"parameterNumber":3,"parameterNumberName":"V-component_of_WINDS"},"data":[0,0,0,0,0,0,0,0,0,0,0,0,0,0,0,0,0,0,0,0,0,0,0,0,0,0,0,0,0,0,0,0,0,0,0,0,0,0,0,0,0,0,0,0,0,0,0,0,0,0,0,0,0,0,0,0,0,0,-4.6377,-4.6379,0,-4.6497,-4.6498,-4.65,-4.6428,-4.6424,-4.6421,-4.6418,-4.6536,-4.6542,-4.6548,0,0,0,0,0,0,0,0,0,0,0,0,0,-4.6083,-4.6089,-4.6377,-4.6379,-4.638,-4.6497,-4.6498,-4.65,-4.6429,-4.6424,-4.642,-4.6416,-4.6534,-4.6541,-4.6549,0,0,0,0,0,0,0,0,0,0,0,0,0,-4.6207,-4.6091,-4.6377,-4.6359,-4.6358,-4.6496,-4.6498,-4.65,-4.6429,-4.6424,-4.6419,-4.6414,-4.6531,-4.654,-4.655,-4.6711,0,0,-4.6579,-4.6583,0,0,0,0,0,0,0,0,-4.62,-4.6218,-4.636,-4.636,-4.636,-4.6442,-4.6438,-4.6571,-4.6431,-4.6402,-4.6418,-4.6412,-4.6509,-4.652,-4.6553,-4.6717,-4.6722,-4.658,-4.6585,-4.659,-4.6592,0,0,0,0,0,0,0,-4.6192,-4.6213,-4.6424,-4.6362,-4.6362,-4.6343,-4.6355,-4.6463,-4.6483,-4.6404,-4.6399,-4.6415,-4.6508,-4.6544,-4.6555,-4.6724,-4.6579,-4.6588,-4.6594,-4.6597,-4.7025,-4.7031,0,0,0,0,0,0,-4.6185,-4.6206,-4.6421,-4.6428,-4.6266,-4.6353,-4.6366,-4.6421,-4.6481,-4.6486,-4.6419,-4.6411,-4.653,-4.6544,-4.6559,-4.6752,-4.6589,-4.6598,-4.6604,-4.702,-4.7026,-4.7033,0,0,0,0,0,0,-4.6179,-4.6205,-4.6416,-4.6316,-4.6341,-4.6363,-4.6425,-4.6426,-4.6463,-4.6493,-4.6495,-4.6453,-4.6527,-4.6546,-4.6674,-4.6755,-4.6603,-4.6611,-4.7013,-4.7022,-4.703,-4.714,0,0,0,0,0,0,-4.6171,-4.6203,-4.6266,-4.6318,-4.6347,-4.6531,-4.6431,-4.6432,-4.648,-4.647,-4.6525,-4.6529,-4.6524,-4.6661,-4.6684,-4.6766,-4.6619,-4.7006,-4.7017,-4.7027,-4.7129,-4.7151,-4.717,0,0,0,0,0,-4.6161,-4.6291,-4.627,-4.6296,-4.6426,-4.6535,-4.6552,-4.6545,-4.6487,-4.6549,-4.6568,-4.6528,-4.6743,-4.6674,-4.67,-4.6786,-4.7001,-4.7014,-4.7026,-4.712,-4.7147,-4.717,0,0,0,0,0,0,-4.6247,-4.6298,-4.6274,-4.6426,-4.6477,-4.6523,-4.6602,-4.6574,-4.6641,-4.663,-4.6616,-4.6629,-4.6764,-4.6787,-4.671,-4.6945,-4.6862,-4.6881,-4.6925,-4.6951,-4.6971,-4.6962,-4.6627,0,0,0,0,0,-4.6284,-4.637,-4.6409,-4.6539,-4.6566,-4.658,-4.6627,-4.6618,-4.667,-4.669,-4.6719,-4.677,-4.6848,-4.6901,-4.6975,-4.7132,-4.7142,-4.7204,-4.7224,-4.7241,-4.7257,-4.7341,-4.7369,-4.7074,-4.7074,-4.7074,0,0,-4.636,-4.6399,-4.6454,-4.6557,-4.6596,-4.6684,-4.6598,-4.6695,-4.6761,-4.6704,-4.6828,-4.6851,-4.6906,-4.705,-4.7114,-4.7074,-4.7341,-4.7257,-4.727,-4.7277,-4.7357,-4.7385,-4.741,-4.7083,-4.7081,-4.708,0,0,-4.6545,-4.6583,-4.6696,-4.6737,-4.6797,-4.6805,-4.6832,-4.6883,-4.6896,-4.702,-4.698,-4.7056,-4.7193,-4.7234,-4.7273,-4.7474,-4.7439,-4.7498,-4.7605,-4.7688,-4.7711,-4.7732,-4.7803,-4.7829,-4.7514,-4.7515,-4.7515,0,-4.6633,-4.6766,-4.6757,-4.6858,-4.6904,-4.6859,-4.6972,-4.7011,-4.7092,-4.7125,-4.7078,-4.7249,-4.7283,-4.7436,-4.7485,-4.7518,-4.7547,-4.7492,-4.7709,-4.7729,-4.7748,-4.7816,-4.7843,-4.7522,-4.7521,-4.752,-4.7519,0,-4.687,-4.6963,-4.7046,-4.7127,-4.7183,-4.7289,-4.7295,-4.7352,-4.7338,-4.7351,-4.7477,-4.7517,-4.7598,-4.7633,-4.7619,-4.7784,-4.7757,-4.771,-4.7627,-4.7783,-4.7847,-4.7873,-4.7531,-4.7529,-4.7527,-4.7525,0,0,-4.7113,-4.7188,-4.7219,-4.7255,-4.7318,-4.7389,-4.7492,-4.7574,-4.7623,-4.768,-4.7766,-4.7883,-4.784,-4.7884,-4.7874,-4.7947,-4.8104,-4.7891,-4.7892,-4.7929,-4.8287,-4.8323,-4.8353,-4.8081,-4.8085,-4.8089,-4.8283,0,-4.7302,-4.7485,-4.748,-4.765,-4.7735,-4.7694,-4.7784,-4.7832,-4.7846,-4.7919,-4.7934,-4.8018,-4.7955,-4.7981,-4.8051,-4.807,-4.8175,-4.8056,-4.816,-4.8164,-4.8148,-4.8386,-4.8424,-4.8605,-4.8307,-4.8312,-4.8315,0,-4.7547,-4.7614,-4.7793,-4.7844,-4.7879,-4.7961,-4.8035,-4.8106,-4.8159,-4.8164,-4.8214,-4.8193,-4.8296,-4.821,-4.8353,-4.8272,-4.8313,-4.8329,-4.8336,-4.8345,-4.8249,-4.8403,-4.8662,-4.8689,-4.8354,-4.8351,-4.8348,0,-4.7706,-4.7841,-4.7966,-4.7998,-4.806,-4.8118,-4.8147,-4.8195,-4.8244,-4.8308,-4.834,-4.8415,-4.8456,-4.8513,-4.8512,-4.845,-4.8657,-4.857,-4.8663,-4.8663,-4.8709,-4.8706,-4.8979,-4.8736,-4.8735,-4.8735,-4.8734,0,-4.7918,-4.8029,-4.8038,-4.8115,-4.8238,-4.8231,-4.8352,-4.8374,-4.8417,-4.8497,-4.8464,-4.8539,-4.8533,-4.8608,-4.8607,-4.8725,-4.8744,-4.875,-4.8749,-4.8754,-4.8753,-4.8781,-4.8769,-4.8742,-4.874,-4.8739,-4.8738,0,-4.8117,-4.8128,-4.8261,-4.8309,-4.8324,-4.8413,-4.8453,-4.8525,-4.8537,-4.8638,-4.8661,-4.8679,-4.8766,-4.8771,-4.887,-4.8869,-4.9013,-4.8998,-4.8996,-4.8993,-4.9086,-4.9078,-4.9387,-4.9427,-4.9158,-4.916,-4.9162,0,-4.8252,-4.8337,-4.8395,-4.8446,-4.8479,-4.8562,-4.8612,-4.8608,-4.8662,-4.8728,-4.8792,-4.8876,-4.8943,-4.9084,-4.9105,-4.9181,-4.9167,-4.927,-4.9178,-4.918,-4.9168,-4.9164,-4.9172,-4.9288,-4.9291,-4.9293,-4.9295,0,-4.849,-4.8491,-4.8566,-4.8644,-4.8705,-4.8765,-4.8821,-4.8865,-4.8866,-4.8928,-4.9018,-4.907,-4.9172,-4.9256,-4.933,-4.9357,-4.9327,-4.9324,-4.935,-4.9355,-4.9351,-4.9355,-4.9045,-4.9317,-4.9315,-4.9313,-4.9312,-4.9311,-4.8661,-4.8735,-4.8787,-4.8872,-4.8914,-4.8967,-4.9037,-4.9058,-4.9133,-4.9217,-4.921,-4.9309,-4.9358,-4.9455,-4.9488,-4.9564,-4.9529,-4.9566,-4.9575,-4.9585,-4.9595,-4.9339,-4.9578,-4.9577,-4.9576,-4.9576,-4.9575,0,-4.8898,-4.893,-4.9008,-4.9088,-4.9154,-4.9121,-4.9181,-4.9238,-4.9326,-4.9376,-4.9443,-4.9546,-4.9626,-4.9654,-4.9733,-4.9788,-4.9776,-4.9809,-4.9805,-4.9812,-4.9622,-4.9592,-4.9817,-4.9817,-4.9817,-4.9817,-4.9817,-4.9817,-4.9029,-4.9152,-4.9159,-4.9302,-4.9332,-4.943,-4.9467,-4.9516,-4.9556,-4.9672,-4.974,-4.9758,-4.9799,-4.988,-4.9952,-4.9958,-4.9988,-5.0027,-5.0027,-4.9849,-4.9825,-4.9802,-4.9774,-5.0033,-5.0034,-5.021,-5.0212,-5.0213]}]]